Regional Weather Roundup
Issued by NWS

Home | Current Version | Previous Version | Graphics & Text | Print | Product List | Glossary On
Versions: 1 2 3 4 5 6 7 8 9 10 11 12 13 14 15 16 17 18 19 20 21 22 23 24 25 26 27 28 29 30 31 32 33 34 35 36 37 38 39 40 41 42 43 44 45 46 47 48 49 50
000
ASUS45 KABQ 230810
RWRNM
NEW MEXICO REGIONAL WEATHER ROUNDUP
NATIONAL WEATHER SERVICE ALBUQUERQUE NM
200 AM MDT MON APR 23 2018

NOTE: "FAIR" MEANS FEW OR NO CLOUDS BELOW 12,000 FEET AGL WITH NO
       SIGNIFICANT WEATHER OR OBSTRUCTIONS TO VISION.

      THIS PRODUCT IS RELEASED AS TWO VERSIONS.  ONE VERSION NEAR
      THE TOP OF THE HOUR CONTAINING PRELIMINARY DATA FROM ALBUQUERQUE
      AND OTHER STATIONS.  A FINAL VERSION WITH ADDITIONAL DATA IS
      ISSUED ABOUT 10 MINUTES AFTER THE HOUR.

NMZ501-503-504-510>518-230900-
NORTHWEST PLATEAU/NORTHCENTRAL MOUNTAINS

CITY           SKY/WX    TMP DP  RH WIND       PRES   REMARKS
FARMINGTON     FAIR      48  18  30 NE3       30.07S
LOS ALAMOS     FAIR      49  28  43 SW8       30.22F
SANTA FE       FAIR      51  31  46 SE8       30.18R
TAOS           FAIR      46  30  53 E7        30.23R
ANGEL FIRE     FAIR      32  28  86 W3        30.27S

$$
NMZ402-403-502-505>509-230900-
WESTCENTRAL MOUNTAINS/SOUTHWEST MOUNTAINS

CITY           SKY/WX    TMP DP  RH WIND       PRES   REMARKS
GALLUP         FAIR      35  11  36 CALM      30.16R
GRANTS         FAIR      44  17  33 NW12      30.17S
SILVER CITY    FAIR      48  26  41 N9        30.14S

$$
NMZ407-409-411-412-230900-
SOUTHERN DESERTS

CITY           SKY/WX    TMP DP  RH WIND       PRES   REMARKS
DEMING         FAIR      55  31  39 NW3       30.08S
LAS CRUCES     FAIR      61  31  32 S6        30.08F
HOLLOMAN AFB   FAIR      52  24  34 E3        30.09F
ALAMOGORDO     FAIR      54  25  32 NW3       30.08F
T OR C         FAIR      59  26  28 W3        30.09F

$$
NMZ519>523-230900-
CENTRAL VALLEYS/CENTRAL HIGHLANDS

CITY           SKY/WX    TMP DP  RH WIND       PRES   REMARKS
ALBUQUERQUE    FAIR      58  26  29 E5        30.12R
MORIARTY ARPT  FAIR      49  33  54 E6        30.20R
CLINES CORNERS FAIR      40  34  79 E9        30.24S WCI  34
BELEN          FAIR      50  22  34 S8        30.11R
SOCORRO        FAIR      54  24  31 S8        30.10R

$$
NMZ524>526-539-540-230900-
SOUTHCENTRAL MOUNTAINS

CITY           SKY/WX    TMP DP  RH WIND       PRES   REMARKS
RUIDOSO        NOT AVBL

$$
NMZ527>531-230900-
NORTHEAST HIGHLANDS/NORTHEAST PLAINS

CITY           SKY/WX    TMP DP  RH WIND       PRES   REMARKS
LAS VEGAS      FAIR      41  37  86 S6        30.23F
RATON          FAIR      39  37  92 W5        30.21S
CLAYTON        FAIR      40  37  89 W6        30.19S

$$
NMZ532>537-230900-
EASTCENTRAL PLAINS

CITY           SKY/WX    TMP DP  RH WIND       PRES   REMARKS
SANTA ROSA     FAIR      43  37  79 NE6       30.18F
TUCUMCARI      FAIR      45  40  82 E6        30.16F
CANNON AFB     FAIR      46  45  98 E5        30.19S
CLOVIS AIRPORT FAIR      41  36  82 N5        30.19S

$$
NMZ028-029-538-230900-
SOUTHEAST PLAINS

CITY           SKY/WX    TMP DP  RH WIND       PRES   REMARKS
ROSWELL        FAIR      50  35  56 CALM      30.11S
ARTESIA        FAIR      54  34  47 CALM      30.11S
CARLSBAD       FAIR      53  35  50 E10       30.09S
HOBBS          FAIR      50  34  53 E7        30.14S


$$




USA.gov is the U.S. government's official web portal to all federal, state and local government web resources and services.